User: anonymous   Login
Location: Camp Creek
(33.9000°N, 111.8167°W)
Time: 03:59:41
(UTC-07:00)
Language:

Cosmos 2322 Rocket - Orbit

View from above orbital plane
View from above orbital plane
View from above satellite
View from above satellite

Ground track
Ground track

The orbit data is extracted from the following two-line orbital elements,

1 23705U 95058B   16242.15681432  .00000233  00000-0  14459-3 0  9993
2 23705  71.0208 281.7252 0011831  13.6662 346.4779 14.15085950 75877
Epoch (UTC): 29 August 2016 03:45:48
Eccentricity: 0.0011831
inclination: 71.0208°
perigee height: 833 km
apogee height: 850 km
right ascension of ascending node: 281.7252°
argument of perigee: 13.6662°
revolutions per day: 14.15085950
mean anomaly at epoch: 346.4779°
orbit number at epoch: 7587

The dashed part of the orbit path shows where the satellite is in the earth's shadow,  

DLR